Regional Weather Roundup
Issued by NWS Jackson, KY

Home | Current Version | Previous Version | Text Only | Print | Product List | Glossary On
Versions: 1 2 3 4 5 6 7 8 9 10 11 12 13 14 15 16 17 18 19 20 21 22 23 24 25 26 27 28 29 30 31 32 33 34 35 36 37 38 39 40 41 42 43 44 45 46 47 48 49 50
000
ASUS43 KJKL 130019
RWRJKL

EAST KENTUCKY HOURLY WEATHER ROUNDUP
NATIONAL WEATHER SERVICE JACKSON KY
800 PM EDT SAT JUL 12 2014

NOTE: "FAIR" INDICATES FEW OR NO CLOUDS BELOW 12,000 FEET WITH
NO SIGNIFICANT WEATHER AND/OR OBSTRUCTIONS TO VISIBILITY.

* THESE REPORTS ARE NOT UNDER NWS QUALITY CONTROL AND MAY NOT
  REPORT WEATHER SUCH AS PRECIPITATION AND FOG.

KYZ079-080-083-085-087-088-110-112-115-119-120-130100
...EASTERN KENTUCKY...

CITY           SKY/WX    TMP DP  RH WIND       PRES   REMARKS
JACKSON        MOCLDY    84  61  45 CALM      30.12F
6HR MIN TEMP:  84; 6HR MAX TEMP:  91;

LONDON         MOCLDY    87  59  38 S6        30.12F
6HR MIN TEMP:  87; 6HR MAX TEMP:  92;

SOMERSET*      MOCLDY    86  54  32 CALM      30.12S
MONTICELLO*    MOSUNNY   83  73  71 CALM      30.13S
6HR MIN TEMP:  83; 6HR MAX TEMP:  95;

MIDDLESBORO*   MOCLDY    82  67  62 SW5       30.14S
6HR MIN TEMP:  81; 6HR MAX TEMP:  90;

HARLAN APT*    MOCLDY    79  63  57 MISG      30.15F
BIG SANDY*     MOCLDY    85  62  45 SE3       30.11F
6HR MIN TEMP:  81; 6HR MAX TEMP:  89;

MOREHEAD APT*    N/A     81  68  65 CALM      30.13S
$$

KYZ035-036-041-042-044-050-067-078-099-130100
...CENTRAL KENTUCKY...

CITY           SKY/WX    TMP DP  RH WIND       PRES   REMARKS
MT STERLING*   MOCLDY    81  70  69 CALM      30.12S
FLEMING/MASON* CLOUDY    81  66  61 CALM      30.10F
DANVILLE*      PTSUNNY   82  64  54 S3        30.11F
RICHMOND*      PTSUNNY   84  59  42 SW3       30.10F
LEXINGTON      PTSUNNY   86  67  52 CALM      30.10F
6HR MIN TEMP:  86; 6HR MAX TEMP:  90;

FRANKFORT      CLOUDY    84  68  58 CALM      30.08F
6HR MIN TEMP:  84; 6HR MAX TEMP:  86;

$$

KYZ091>093-OHZ055-061-077-WVZ005-015-034-035-042-130100
...SOUTHERN OHIO/WEST VIRGINIA...

CITY           SKY/WX    TMP DP  RH WIND       PRES   REMARKS
COVINGTON      PTSUNNY   81  66  60 SW7       30.07F
COLUMBUS       MOCLDY    84  61  45 SW10      30.07R
DAYTON         PTSUNNY   80  68  66 SW9       30.08S
WILMINGTON     PTSUNNY   79  65  62 SW9       30.08R
HUNTINGTON     MOCLDY    84  63  49 SW5       30.08F
CHARLESTON     MOCLDY    86  61  42 S3        30.08F
PINEVILLE*     CLEAR     76  70  83 MISG      30.20F
BECKLEY        CLEAR     79  59  50 SW5       30.20F
BLUEFIELD      PTCLDY    81  61  50 CALM      30.24S
$$

VAZ002-007-008-TNZ017-027-036-066-071-130100
...SOUTHWEST VIRGINIA/EAST TENNESSEE...

CITY           SKY/WX    TMP DP  RH WIND       PRES   REMARKS
WISE*          MOCLDY    77  57  50 CALM      30.23F
JONESVILLE*    MOCLDY    81  72  74 CALM      30.16F
ABINGDON*      PTCLDY    82  65  55 CALM      30.19S
BRISTOL        PTCLDY    85  59  41 W5        30.15F
KNOXVILLE      PTCLDY    83  66  56 S6        30.12S
OAK RIDGE      MOCLDY    88  68  51 CALM      30.13F HX  91
CROSSVILLE     PTCLDY    81  65  58 SE3       30.18F
NASHVILLE      PTSUNNY   90  65  43 W3        30.09F HX  92
$$

...KEY TO REMARKS...
VSB - VISIBILITY IN MILES
WCI - WIND CHILL INDEX
HX  - HEAT INDEX

$$


USA.gov is the U.S. government's official web portal to all federal, state and local government web resources and services.